Wind_Speed
6 8 10 5 7 8 8 7 6 10 8 8 7 7 9 7 8 4 3 4 5 4 5 6 5 5 4 4 5 4 5 5 5 3 4 5 4 4 4 6 5 4 4 5 5 4 2 1 1
7 9 9 8 8 6 9 10 9 9 9 6 6 6 7 6 5 3 2 1 4 4 3 5 6 6 5 5 4 5 5 4 5 3 7 8 5 3 4 5 5 4 4 4 5 2 1 1 2
5 6 7 6 6 7 6 7 11 10 8 6 5 6 4 3 3 3 2 1 1 2 3 4 6 7 6 7 9 8 9 3 3 1 3 8 7 7 6 6 4 4 5 4 4 1 1 0 2
6 8 8 7 8 11 8 12 7 7 5 4 6 4 2 1 4 3 2 3 1 1 2 3 6 8 7 7 9 8 7 3 3 7 7 11 11 5 7 7 5 5 6 6 4 2 0 2 2
6 7 5 7 11 10 8 7 2 3 4 3 1 3 3 2 5 3 2 2 2 1 1 3 6 8 7 7 7 5 6 3 1 6 7 10 7 9 8 9 5 5 5 6 3 3 2 1 1
4 4 6 10 11 9 7 6 5 3 3 3 5 6 7 2 3 4 1 2 4 1 1 3 6 7 6 5 6 4 2 1 2 5 6 7 3 10 7 10 7 6 5 5 5 5 4 3 4
4 5 8 9 9 9 9 6 6 3 3 2 3 6 6 6 2 2 0 1 3 3 2 1 4 6 6 5 5 3 1 1 3 6 3 1 5 4 8 7 8 5 5 3 5 5 6 6 10
1 1 3 7 10 9 8 6 6 5 5 3 4 6 8 5 3 2 0 2 2 5 4 1 3 4 5 6 5 3 3 1 3 5 2 2 3 3 9 3 4 4 4 4 6 5 6 7 11
4 1 3 4 6 5 7 6 8 6 5 6 8 7 7 6 3 3 0 0 1 3 3 2 2 4 4 4 4 4 2 0 2 4 3 8 7 4 3 2 2 3 3 3 5 7 5 7 7
5 2 3 4 0 5 6 6 6 4 5 7 7 5 4 5 4 2 2 2 2 4 3 2 1 3 4 3 3 4 3 3 3 5 3 6 8 7 4 3 2 3 3 4 5 8 7 7 8
4 4 5 4 4 2 3 3 5 7 7 7 6 5 5 5 3 2 2 3 3 4 3 2 1 2 3 4 3 4 5 5 1 1 4 3 5 3 3 3 3 3 4 5 4 8 7 6 6
6 5 4 4 4 5 5 3 4 5 6 5 5 6 6 5 4 3 4 5 5 6 5 3 1 3 4 5 4 4 5 6 4 3 3 2 4 3 4 3 3 3 4 5 6 7 7 6 6
7 6 6 5 3 5 7 9 9 9 8 8 8 7 9 10 8 5 5 4 5 7 5 5 3 3 3 4 5 5 6 8 6 5 5 5 4 2 6 4 4 5 5 6 6 6 4 5 5
8 5 5 6 4 3 6 10 8 11 13 12 9 8 9 9 8 7 6 5 3 5 5 4 4 4 3 3 5 6 8 8 8 8 7 7 5 6 5 6 4 5 6 4 5 6 5 5 6
8 3 5 5 5 4 4 7 7 8 8 10 11 12 12 11 10 9 9 7 8 5 4 6 4 3 4 3 5 6 9 9 10 10 11 10 8 6 7 6 5 7 5 5 6 7 8 5 6
7 8 2 1 5 4 0 1 1 4 3 6 11 11 14 12 11 14 13 11 10 7 4 5 7 7 4 6 6 6 7 11 13 9 14 16 11 6 7 7 7 7 6 6 7 7 5 5 7
8 2 5 5 4 5 4 3 6 3 2 3 8 13 13 12 13 15 15 9 10 10 9 6 7 8 6 5 7 7 7 11 15 12 11 17 13 8 6 7 7 7 8 6 7 7 5 5 6
5 2 7 6 8 4 4 7 4 6 4 2 5 11 13 15 13 12 11 12 12 8 7 7 4 13 1 6 6 8 7 9 6 8 15 18 14 10 5 6 8 7 8 8 6 7 7 8 5
5 6 9 8 4 3 4 7 6 4 4 3 2 12 14 17 14 12 13 14 13 12 13 12 10 13 6 7 6 7 7 8 8 9 2 15 13 11 6 5 6 6 9 10 9 8 7 7 5
6 6 7 7 2 1 3 4 2 9 5 5 4 9 14 15 10 14 14 19 17 14 13 12 10 10 8 8 7 5 6 5 6 0 10 10 10 9 7 7 10 9 8 11 12 10 8 6 6
10 5 5 5 4 3 1 3 10 9 7 7 5 9 17 14 11 12 11 14 17 17 17 11 9 11 12 10 9 6 5 4 4 3 9 11 12 12 12 10 11 14 11 12 14 16 9 10 8
4 6 4 5 4 1 4 1 9 13 11 8 7 9 17 13 8 12 15 17 19 18 12 13 10 7 10 13 11 8 6 6 6 7 9 10 11 13 12 11 15 11 11 12 15 16 14 14 12
6 5 5 5 6 3 2 6 5 8 10 9 8 9 10 10 9 13 15 17 17 16 16 19 3 5 8 9 11 8 9 9 10 9 10 10 12 14 12 15 15 15 13 13 15 15 14 15 13
4 6 7 5 5 1 6 7 7 5 6 10 12 13 10 9 9 12 11 13 18 16 15 19 17 6 9 11 12 12 11 13 12 12 12 13 14 14 15 12 18 17 17 16 16 16 17 16 15
3 3 5 4 3 7 9 3 14 11 8 9 11 13 13 14 13 14 15 17 13 15 14 16 17 14 12 11 13 11 13 15 16 14 16 17 17 17 17 16 18 19 17 19 17 17 17 16 17
3 6 4 3 6 8 16 5 11 15 12 9 8 9 15 21 20 17 16 19 16 16 15 19 18 16 14 15 10 16 17 17 18 19 18 19 21 19 19 20 19 21 20 23 23 22 20 18 19
10 2 12 5 10 6 10 11 12 13 14 14 11 11 16 20 21 20 18 14 15 16 15 19 20 15 13 17 18 19 20 20 19 19 22 22 21 23 21 23 22 23 24 25 27 27 25 20 19
9 14 4 7 7 9 10 14 10 15 16 16 17 18 18 23 26 22 21 18 19 20 19 14 17 21 16 18 17 17 14 16 17 22 21 24 26 21 24 25 25 26 26 26 28 30 28 26 23
11 9 13 11 12 13 14 12 22 18 18 18 19 22 24 25 25 25 27 22 19 22 23 23 19 18 15 16 16 11 15 17 18 25 22 31 29 26 24 26 27 24 24 24 27 27 28 27 25
16 17 16 14 14 20 25 22 27 21 22 22 23 24 26 26 26 27 26 25 23 24 26 24 24 21 16 16 16 16 21 21 19 21 24 26 23 27 21 22 22 17 17 22 23 21 26 29 24
Wind_Direction
30 30 26 131 40 35 51 28 16 9 19 28 61 76 71 69 64 47 64 91 85 98 99 88 84 82 90 86 84 104 114 92 112 181 222 209 184 130 171 121 105 62 63 68 75 56 28 19 269
50 30 37 67 51 10 359 5 14 359 348 9 70 56 59 64 68 50 40 40 96 93 95 103 102 92 88 65 65 116 123 103 0 306 232 189 199 177 144 129 114 83 65 71 72 82 97 119 224
40 34 6 17 23 358 344 13 356 354 5 13 33 33 64 53 61 70 10 348 84 97 108 121 123 116 101 97 103 102 87 63 354 318 235 239 207 176 136 117 106 78 64 70 78 101 105 209 247
14 0 349 351 341 338 341 327 344 356 21 8 345 59 57 83 133 117 19 335 326 42 111 124 137 134 124 118 124 120 117 148 48 318 18 288 281 188 126 113 116 90 68 72 67 89 31 269 245
356 349 345 353 338 333 328 333 6 351 3 9 64 56 56 144 148 82 23 327 304 252 164 150 154 157 149 149 141 134 116 129 292 7 357 322 294 229 123 110 103 74 86 78 82 119 126 293 358
341 335 301 302 319 326 329 336 339 4 56 69 90 51 42 59 179 18 113 328 317 277 262 163 162 174 179 174 174 165 116 135 336 359 341 344 291 233 125 108 88 76 85 73 106 123 99 71 81
306 283 273 284 293 309 313 320 338 359 70 12 4 15 15 10 334 316 312 316 317 302 267 193 174 184 206 211 207 216 235 35 14 360 15 11 26 38 111 93 81 73 83 81 103 100 84 91 101
15 202 246 268 284 284 293 291 302 301 331 13 10 5 18 29 76 102 300 301 288 316 319 285 217 214 224 227 222 234 273 320 14 358 194 206 123 125 111 115 74 77 69 72 107 114 106 131 125
102 170 266 268 275 271 270 274 291 299 351 4 17 20 36 34 100 109 224 355 329 337 338 337 254 231 236 253 232 221 253 255 16 31 169 168 131 92 102 111 85 100 96 85 123 114 111 132 117
89 88 162 144 223 296 284 281 296 335 19 8 16 20 21 21 17 66 72 80 13 10 -0 -0 235 249 241 243 225 206 228 230 26 59 49 185 163 164 191 137 105 108 108 112 116 105 114 136 121
95 113 93 123 143 198 252 304 342 7 23 27 32 23 6 4 14 357 28 358 321 314 334 4 259 241 242 235 221 216 238 260 170 206 65 158 140 155 150 162 134 127 121 127 110 100 112 129 126
117 113 92 77 118 131 117 74 54 53 59 50 53 59 46 29 15 340 326 318 301 297 297 305 283 238 247 233 224 211 226 238 223 231 195 149 212 195 189 160 142 152 136 144 154 116 105 127 126
123 89 72 65 70 116 98 83 68 56 57 60 57 59 58 46 25 8 1 344 296 277 281 295 291 248 254 250 264 253 222 239 241 232 235 233 209 177 168 169 135 140 137 146 140 147 144 141 140
104 107 92 81 80 139 114 93 76 56 33 22 48 45 31 15 12 3 4 352 335 301 306 302 283 269 257 232 259 252 246 239 249 239 238 226 207 191 195 186 159 169 150 164 157 157 156 151 153
93 82 66 60 72 83 88 85 82 74 53 18 13 50 42 29 15 12 -0 355 343 343 316 302 284 251 268 270 260 249 253 259 259 259 234 214 218 210 204 221 208 174 166 156 152 156 156 136 178
91 38 54 350 10 347 250 273 119 122 77 25 355 26 25 12 13 13 13 7 11 3 352 259 256 248 237 276 277 276 262 263 263 297 236 210 204 232 211 221 177 176 176 173 154 159 171 135 151
40 349 16 342 329 341 285 238 252 239 151 37 0 357 6 350 12 17 28 16 3 354 336 333 290 249 257 279 295 286 272 272 282 283 254 213 200 198 206 197 184 184 174 171 173 165 168 172 173
29 14 337 330 322 318 245 234 262 268 188 127 14 339 351 338 353 11 5 4 19 3 325 331 341 246 161 293 280 285 285 303 314 287 278 232 193 186 192 217 211 203 186 189 186 181 187 187 198
13 337 314 312 360 296 238 233 239 247 197 185 33 321 340 334 348 6 357 7 351 13 357 347 342 334 322 278 281 286 280 296 304 307 81 167 187 202 193 167 200 208 204 200 193 194 188 201 193
343 334 322 300 18 252 206 247 206 177 196 232 270 345 339 325 5 55 38 30 29 352 356 342 333 311 277 276 276 267 259 271 290 262 190 191 210 214 192 220 218 208 204 191 194 179 203 205 186
325 320 295 311 351 71 16 68 180 191 213 263 313 336 342 321 330 357 22 19 12 360 341 333 326 317 313 287 286 288 252 244 261 196 194 216 220 222 213 227 225 223 227 222 211 212 221 217 204
316 306 319 330 295 298 91 342 186 212 214 261 313 310 323 315 334 350 358 354 357 335 336 306 309 311 317 313 300 302 293 268 241 212 231 236 227 230 226 236 226 248 242 237 226 216 212 208 200
259 304 319 298 281 39 35 92 271 227 237 259 275 288 293 304 343 341 340 341 350 28 357 15 241 310 310 304 305 305 308 289 269 243 223 224 244 242 243 240 236 237 250 242 222 217 205 210 212
290 333 336 290 287 48 262 143 285 232 270 274 275 269 259 289 311 314 329 332 320 345 11 7 10 294 311 303 301 302 294 295 281 267 254 237 236 246 251 255 231 242 250 241 227 216 217 219 218
342 12 327 315 286 218 278 251 240 261 250 263 288 248 249 273 285 283 292 327 330 331 331 1 3 355 332 312 287 280 280 283 283 276 266 255 243 242 246 247 238 239 249 232 224 232 224 227 225
225 198 235 282 255 246 303 256 268 273 272 258 258 269 267 270 271 278 288 305 298 317 321 334 339 344 350 348 312 295 284 272 271 271 271 265 258 247 246 247 251 248 245 240 229 229 231 232 237
273 241 235 268 294 300 268 296 323 293 282 282 275 258 257 257 269 288 298 301 301 298 303 313 323 328 324 324 306 286 266 269 271 276 271 268 268 265 255 251 255 258 255 244 235 230 228 232 236
234 238 322 303 278 279 276 296 270 289 280 282 285 278 263 260 264 278 289 294 289 296 299 300 309 325 327 315 308 271 257 271 280 269 265 271 265 261 263 255 260 258 262 246 234 232 232 230 229
251 275 266 260 285 281 300 288 283 299 292 285 277 273 274 274 273 272 279 285 278 282 289 299 301 299 317 322 315 262 264 271 273 288 309 278 275 268 264 264 266 263 250 238 236 228 225 223 224
245 252 267 272 281 296 297 305 293 291 288 286 282 278 277 276 275 276 280 283 284 273 286 286 288 284 282 290 298 303 289 279 282 294 290 267 258 261 272 272 272 250 231 222 224 220 216 218 223
Height
5920 5920 5918 5917 5921 5920 5918 5918 5916 5916 5915 5913 5910 5910 5908 5907 5906 5909 5905 5902 5901 5901 5901 5901 5901 5900 5901 5902 5902 5902 5903 5904 5904 5904 5904 5902 5902 5901 5903 5903 5904 5906 5905 5906 5906 5906 5906 5906 5906
5919 5919 5920 5919 5921 5920 5919 5918 5917 5916 5915 5913 5912 5910 5909 5908 5907 5906 5905 5903 5902 5902 5902 5901 5901 5900 5901 5902 5903 5903 5903 5904 5903 5903 5902 5901 5901 5901 5902 5903 5904 5905 5905 5906 5905 5905 5905 5905 5906
5920 5921 5921 5920 5920 5919 5919 5917 5917 5915 5914 5913 5912 5910 5910 5909 5908 5907 5906 5904 5903 5903 5903 5902 5902 5902 5903 5904 5904 5905 5904 5905 5904 5903 5902 5898 5897 5899 5901 5903 5904 5905 5905 5905 5905 5904 5904 5904 5905
5920 5921 5921 5920 5918 5918 5917 5917 5915 5913 5914 5913 5912 5911 5910 5908 5908 5907 5906 5905 5904 5903 5903 5903 5903 5902 5903 5905 5906 5906 5905 5905 5904 5902 5903 5902 5900 5895 5899 5902 5905 5905 5905 5905 5905 5903 5904 5904 5904
5921 5921 5921 5919 5919 5917 5916 5914 5915 5913 5913 5913 5912 5911 5910 5909 5908 5907 5905 5906 5904 5903 5903 5903 5903 5903 5903 5905 5907 5906 5905 5905 5903 5902 5901 5901 5900 5898 5898 5901 5905 5905 5905 5905 5905 5904 5903 5903 5904
5922 5922 5921 5920 5919 5918 5916 5914 5913 5914 5914 5914 5913 5911 5909 5908 5908 5907 5906 5906 5905 5904 5904 5904 5904 5904 5904 5905 5906 5907 5907 5905 5903 5902 5902 5900 5900 5900 5900 5903 5905 5905 5906 5906 5905 5904 5903 5903 5904
5921 5922 5921 5920 5920 5918 5916 5915 5914 5914 5915 5914 5912 5909 5908 5908 5907 5908 5907 5906 5906 5906 5905 5904 5904 5905 5905 5905 5906 5907 5907 5905 5903 5902 5902 5901 5899 5901 5902 5905 5905 5906 5906 5907 5906 5905 5903 5904 5904
5921 5922 5922 5921 5920 5918 5915 5914 5913 5914 5915 5913 5911 5909 5908 5908 5908 5908 5907 5906 5906 5906 5905 5905 5905 5905 5905 5905 5906 5906 5907 5906 5905 5904 5902 5901 5900 5901 5903 5905 5907 5906 5906 5906 5906 5906 5905 5905 5905
5922 5923 5922 5921 5919 5918 5916 5915 5913 5913 5914 5912 5911 5910 5909 5908 5908 5907 5907 5906 5906 5905 5905 5904 5905 5905 5905 5906 5906 5907 5907 5906 5905 5903 5903 5903 5902 5902 5904 5906 5907 5907 5906 5907 5907 5906 5906 5906 5905
5923 5923 5922 5921 5920 5918 5917 5915 5914 5915 5913 5912 5911 5911 5909 5908 5907 5907 5907 5906 5906 5905 5905 5904 5905 5905 5906 5906 5906 5907 5906 5906 5905 5904 5904 5904 5904 5905 5905 5906 5907 5908 5908 5907 5907 5907 5908 5908 5907
5922 5923 5923 5922 5921 5920 5918 5916 5914 5912 5912 5911 5911 5910 5909 5908 5907 5907 5907 5906 5905 5905 5905 5904 5904 5905 5905 5906 5905 5905 5905 5904 5904 5905 5904 5904 5904 5905 5905 5906 5907 5908 5908 5908 5908 5908 5909 5909 5908
5923 5923 5923 5923 5922 5920 5919 5918 5916 5915 5915 5914 5912 5910 5910 5908 5907 5907 5906 5905 5905 5905 5905 5905 5905 5905 5905 5905 5905 5904 5904 5903 5903 5905 5905 5905 5905 5905 5905 5906 5907 5908 5908 5908 5908 5908 5909 5910 5910
5923 5923 5923 5922 5921 5920 5920 5919 5917 5916 5915 5914 5913 5912 5910 5909 5908 5907 5906 5905 5904 5903 5903 5904 5904 5904 5903 5904 5904 5904 5904 5902 5900 5904 5904 5905 5905 5904 5905 5905 5906 5907 5908 5909 5909 5909 5910 5911 5912
5924 5924 5923 5923 5923 5922 5920 5920 5920 5918 5916 5914 5914 5913 5912 5909 5908 5907 5906 5904 5902 5901 5902 5902 5903 5903 5902 5902 5902 5903 5903 5902 5900 5901 5903 5904 5905 5905 5904 5905 5906 5907 5907 5909 5909 5909 5910 5912 5912
5924 5925 5925 5924 5923 5923 5923 5922 5921 5920 5918 5916 5915 5914 5913 5911 5908 5908 5906 5906 5906 5903 5903 5903 5901 5901 5901 5901 5900 5900 5901 5901 5899 5901 5901 5903 5904 5904 5903 5904 5905 5906 5907 5908 5909 5910 5911 5912 5913
5926 5926 5926 5925 5924 5924 5923 5925 5924 5922 5920 5919 5916 5916 5914 5912 5911 5911 5909 5908 5907 5906 5902 5899 5900 5898 5896 5899 5899 5899 5898 5898 5897 5898 5899 5900 5900 5903 5903 5904 5905 5906 5907 5908 5910 5911 5912 5912 5913
5926 5929 5925 5925 5924 5925 5924 5924 5923 5923 5922 5921 5919 5916 5915 5913 5914 5913 5911 5909 5907 5906 5902 5901 5898 5896 5896 5894 5897 5897 5896 5894 5881 5893 5896 5898 5899 5901 5902 5903 5905 5906 5907 5908 5909 5910 5912 5913 5914
5926 5929 5926 5925 5925 5924 5924 5924 5924 5924 5923 5922 5921 5918 5916 5913 5914 5915 5912 5910 5908 5905 5899 5899 5899 5892 5890 5895 5895 5895 5895 5892 5892 5892 5892 5893 5896 5898 5900 5902 5903 5905 5906 5908 5909 5910 5911 5913 5913
5924 5924 5924 5923 5923 5923 5923 5922 5923 5924 5924 5923 5922 5919 5916 5913 5913 5914 5913 5911 5908 5906 5901 5898 5896 5887 5891 5895 5895 5893 5893 5891 5891 5890 5886 5890 5894 5894 5898 5901 5902 5905 5906 5908 5909 5911 5912 5912 5913
5922 5923 5924 5922 5922 5922 5922 5923 5923 5923 5924 5923 5922 5921 5918 5915 5913 5914 5914 5912 5910 5906 5904 5901 5900 5899 5896 5895 5894 5892 5892 5891 5891 5891 5890 5891 5891 5892 5895 5899 5902 5903 5905 5906 5908 5910 5911 5911 5912
5925 5922 5921 5921 5922 5923 5923 5923 5923 5923 5924 5923 5923 5921 5919 5916 5914 5913 5914 5912 5911 5908 5906 5903 5900 5899 5898 5895 5892 5891 5891 5890 5890 5891 5892 5892 5892 5893 5895 5898 5899 5900 5902 5904 5905 5908 5909 5910 5911
5924 5920 5919 5919 5921 5925 5923 5929 5924 5924 5924 5923 5922 5921 5919 5916 5915 5913 5912 5911 5911 5906 5904 5902 5898 5896 5896 5895 5893 5891 5891 5891 5890 5889 5890 5890 5892 5893 5893 5894 5896 5897 5899 5901 5903 5905 5907 5908 5909
5920 5917 5918 5918 5920 5923 5924 5928 5925 5924 5924 5922 5921 5921 5920 5918 5916 5914 5912 5910 5908 5906 5902 5901 5894 5893 5894 5894 5893 5890 5890 5892 5892 5890 5888 5890 5891 5891 5891 5892 5894 5895 5897 5898 5899 5902 5904 5906 5907
5916 5917 5918 5918 5920 5925 5922 5925 5926 5923 5922 5921 5921 5920 5919 5917 5915 5914 5911 5909 5906 5906 5902 5898 5894 5893 5894 5892 5891 5890 5888 5890 5891 5891 5890 5888 5889 5889 5891 5892 5892 5894 5895 5896 5897 5899 5901 5903 5904
5915 5918 5925 5924 5924 5927 5920 5922 5922 5919 5920 5919 5918 5917 5916 5915 5913 5910 5909 5908 5906 5903 5902 5899 5897 5895 5891 5889 5888 5887 5886 5885 5886 5887 5887 5887 5885 5885 5886 5887 5889 5890 5891 5893 5895 5896 5898 5899 5901
5915 5920 5924 5922 5924 5924 5917 5921 5919 5914 5915 5916 5916 5915 5913 5910 5909 5908 5907 5904 5903 5900 5898 5896 5895 5892 5889 5886 5885 5885 5885 5882 5881 5882 5883 5883 5883 5882 5881 5882 5885 5886 5886 5888 5890 5892 5894 5896 5898
5913 5915 5916 5919 5917 5918 5919 5915 5913 5911 5910 5910 5911 5910 5908 5906 5905 5904 5903 5900 5899 5897 5896 5893 5891 5890 5888 5885 5882 5879 5879 5880 5879 5879 5880 5879 5879 5879 5879 5878 5879 5881 5881 5882 5885 5887 5889 5892 5893
5911 5912 5916 5916 5918 5916 5917 5912 5912 5908 5907 5907 5905 5904 5903 5900 5900 5899 5898 5897 5895 5893 5891 5891 5889 5885 5883 5880 5877 5874 5874 5875 5876 5874 5874 5876 5875 5874 5874 5873 5872 5873 5874 5876 5878 5880 5884 5887 5889
5908 5910 5909 5910 5910 5910 5911 5912 5903 5903 5901 5900 5899 5896 5895 5892 5892 5891 5890 5890 5890 5890 5887 5885 5884 5883 5880 5876 5870 5870 5870 5871 5871 5869 5868 5871 5871 5872 5869 5870 5868 5866 5866 5868 5871 5874 5878 5881 5884
5903 5904 5905 5907 5908 5905 5901 5901 5896 5897 5895 5893 5891 5888 5886 5885 5884 5883 5883 5883 5882 5883 5882 5881 5879 5878 5876 5873 5870 5868 5867 5868 5868 5868 5867 5869 5868 5869 5864 5863 5861 5859 5861 5863 5868 5871 5873 5876 5880